This is the latest recevied weather packets stored in our database for station/object PY2FGD-15. If no packets are shown the sender has not sent any weather packets the latest 10 day(s).
| Time | Temp. | Humidity | Pressure | Rain* | Wind** | Luminosity | Snow |
|---|---|---|---|---|---|---|---|
| 1777636809 | 20° C | 82% | 1020 hPa | 2.54 mm | - | - | - |
| 1777634403 | 17.78° C | 86% | 1020 hPa | 2.54 mm | - | - | - |
| 1777632003 | 13.33° C | 86% | 1020 hPa | 2.54 mm | - | - | - |
| 1777631403 | 13.33° C | 86% | 1020 hPa | 2.54 mm | - | - | - |
| 1777618803 | 12.78° C | 86% | 1018 hPa | 2.54 mm | - | - | - |
| 1777618203 | 12.78° C | 86% | 1018 hPa | 2.54 mm | - | - | - |
| 1777617004 | 13.33° C | 86% | 1018 hPa | 2.54 mm | - | - | - |
| 1777614604 | 15° C | 86% | 1018 hPa | 2.54 mm | - | - | - |
| 1777597203 | 17.22° C | 85% | 1018 hPa | 2.54 mm | - | - | - |
| 1777588803 | 21.11° C | 85% | 1017 hPa | 2.54 mm | - | - | - |
| 1777586405 | 21.67° C | 85% | 1016 hPa | 2.54 mm | - | - | - |
| 1777577404 | 22.78° C | 70% | 1014 hPa | 2.54 mm | - | - | - |
| 1777573803 | 24.44° C | 63% | 1014 hPa | 2.54 mm | - | - | - |
| 1777572003 | 25.56° C | 63% | 1014 hPa | 2.54 mm | - | - | - |
| 1777569004 | 25° C | 66% | 1014 hPa | 2.54 mm | - | - | - |
| 1777566605 | 24.44° C | 71% | 1014 hPa | 2.54 mm | - | - | - |
| 1777562403 | 23.33° C | 69% | 1016 hPa | 2.54 mm | - | - | - |
| 1777561203 | 23.89° C | 69% | 1016 hPa | 2.54 mm | - | - | - |
| 1777558206 | 22.22° C | 74% | 1017 hPa | 2.54 mm | - | - | - |
| 1777552203 | 19.44° C | 88% | 1017 hPa | 2.54 mm | - | - | - |
| 1777548003 | 18.33° C | 93% | 1017 hPa | 2.54 mm | - | - | - |
| 1777547403 | 17.78° C | 94% | 1017 hPa | 2.54 mm | - | - | - |
| 1777540804 | 14.44° C | 94% | 1016 hPa | 2.54 mm | - | - | - |
| 1777539605 | 15.56° C | 94% | 1016 hPa | 2.54 mm | - | - | - |
| 1777537203 | 14.44° C | 93% | 1016 hPa | 2.54 mm | - | - | - |
* Rain latest hour (hover to see other rain measurements)
** Current wind speed in m/s (hover to see current wind gust speed)